Weather History for Detroit Metro, MI

Change the Weather History Date:

Tuesday, March 4, 2014

  Actual Average Record
Temperature  
Mean Temperature 11 °F 33 °F  
Max Temperature 21 °F 41 °F 69 °F (1983)
Min Temperature 0 °F 25 °F 0 °F (2014)
Degree Days  
Heating Degree Days 54 32  
Month to date heating degree days 202 131  
Since 1 July heating degree days 5452 4684  
Cooling Degree Days 0 0  
Month to date cooling degree days 0 0  
Year to date cooling degree days 0 0  
Moisture  
Dew Point -2 °F    
Average Humidity 55    
Maximum Humidity 75    
Minimum Humidity 34    
Precipitation  
Precipitation 0.00 in 0.07 in 1.18 in (1895)
Month to date precipitation 0.38 0.29  
Year to date precipitation 6.12 4.27  
Snow  
Snow 0.00 in 0.30 in 11.80 in (1895)
Month to date snowfall 4.6 1.2  
Since 1 July snowfall 83.8 35.1  
Snow Depth 15.00 in    
Sea Level Pressure  
Sea Level Pressure 30.34 in    
Wind  
Wind Speed 4 mph (South)    
Max Wind Speed 9 mph    
Max Gust Speed 12 mph    
Visibility 10 miles    
Events      
T = Trace of Precipitation, MM = Missing Value Source: NWS Daily Summary

Daily Weather History Graph

Daily Weather History Graph

Search for Another Location

Airport:

Trip Planner

Search our weather history database for the weather conditions in past years. The results will help you decide how hot, cold, wet, or windy it might be!

Date:

Astronomy

Mar. 04, 2014 Rise Set
Actual Time 7:03 AM EST 6:26 PM EST
Civil Twilight 6:35 AM EST 6:54 PM EST
Nautical Twilight 6:03 AM EST 7:27 PM EST
Astronomical Twilight 5:30 AM EST 8:00 PM EST
Moon 8:44 AM EST (3/4) 10:38 PM EST (3/4)
Length of Visible Light 12h 19m
Length of Day
11h 23m
Waxing Crescent, 14% of the Moon is Illuminated
Mar 4
Waxing Crescent
Mar 8
First Quarter
Mar 16
Full
Mar 23
Last Quarter
Mar 30
New

Hourly Weather History & Observations

Time (EST) Temp. Windchill Dew Point Humidity Pressure Visibility Wind Dir Wind Speed Gust Speed Precip Events Conditions
12:53 AM -0.0 °F -9.9 °F -8.0 °F 69% 30.45 in 10.0 mi South 4.6 mph - N/A   Scattered Clouds
1:53 AM 1.9 °F -5.6 °F -6.0 °F 69% 30.45 in 10.0 mi South 3.5 mph - N/A   Mostly Cloudy
2:53 AM 3.0 °F -6.4 °F -6.0 °F 66% 30.43 in 10.0 mi South 4.6 mph - N/A   Mostly Cloudy
3:53 AM 3.0 °F -4.4 °F -5.1 °F 69% 30.41 in 10.0 mi South 3.5 mph - N/A   Overcast
4:53 AM 3.9 °F -6.9 °F -5.1 °F 66% 30.41 in 10.0 mi South 5.8 mph - N/A   Overcast
5:53 AM 3.9 °F -5.3 °F -4.0 °F 70% 30.41 in 10.0 mi South 4.6 mph - N/A   Overcast
6:53 AM 5.0 °F -4.1 °F -4.0 °F 66% 30.41 in 10.0 mi South 4.6 mph - N/A   Overcast
7:53 AM 6.1 °F -4.3 °F -2.9 °F 67% 30.40 in 10.0 mi South 5.8 mph - N/A   Overcast
8:53 AM 7.0 °F 0.1 °F -2.0 °F 67% 30.39 in 10.0 mi SSW 3.5 mph - N/A   Overcast
9:53 AM 10.0 °F - -0.9 °F 61% 30.39 in 10.0 mi Calm Calm - N/A   Overcast
10:53 AM 10.9 °F 2.9 °F -0.9 °F 59% 30.37 in 10.0 mi South 4.6 mph - N/A   Overcast
11:53 AM 12.9 °F 5.2 °F -2.0 °F 51% 30.34 in 10.0 mi SSW 4.6 mph - N/A   Overcast
12:53 PM 15.1 °F 6.4 °F -2.0 °F 47% 30.32 in 10.0 mi South 5.8 mph - N/A   Overcast
1:53 PM 17.1 °F 6.6 °F -2.9 °F 41% 30.29 in 10.0 mi South 8.1 mph - N/A   Overcast
2:53 PM 18.0 °F 11.1 °F -0.9 °F 44% 30.28 in 10.0 mi South 4.6 mph - N/A   Overcast
3:53 PM 19.0 °F - -2.9 °F 38% 30.25 in 10.0 mi Calm Calm - N/A   Overcast
4:53 PM 19.9 °F - -5.1 °F 33% 30.25 in 10.0 mi Calm Calm - N/A   Overcast
5:53 PM 19.9 °F - -2.9 °F 37% 30.26 in 10.0 mi Calm Calm - N/A   Overcast
6:53 PM 19.9 °F - -2.0 °F 38% 30.26 in 10.0 mi Calm Calm - N/A   Mostly Cloudy
7:53 PM 19.0 °F 11.1 °F 3.0 °F 50% 30.28 in 10.0 mi SSW 5.8 mph - N/A   Overcast
8:53 PM 19.0 °F 12.3 °F 5.0 °F 54% 30.28 in 10.0 mi South 4.6 mph - N/A   Overcast
9:53 PM 18.0 °F - 3.9 °F 54% 30.29 in 10.0 mi Calm Calm - N/A   Overcast
10:53 PM 18.0 °F 12.7 °F 1.9 °F 50% 30.28 in 10.0 mi West 3.5 mph - N/A   Overcast
11:53 PM 18.0 °F 11.1 °F 3.9 °F 54% 30.28 in 10.0 mi WNW 4.6 mph - N/A   Overcast